COSMOS 1275 DEB, 19027

Orbit data source: Space-Track

COSMOS 1275 DEB, 19027 is space debris in LEO originally from a launch on Thu, 04 Jun 1981 UTC launched from the Plesetsk Missile And Space Complex (PKMTR). Debris objects in space refer to the collection of defunct objects orbiting the Earth. Examples of debris include non-operational satellites, rocket bodies, and fragments generated from explosions, collisions, or faulty payload assembly.

Loading next visibility...
Identifier
19027, 1981-053ME
Orbit
LEO
Country
Flag of CISCIS
Related business
Manufacturer
Unknown
Mission
Spacecraft
Bus & Motor
Unknown
Mass
Unknown
Launch date (UTC)
1981-06-04 (45 years ago)
Launch vehicle
Unknown
Launch site
Plesetsk Missile And Space Complex (PKMTR)
Object type
Payload
Rocket body
Debris
Shape & HBR
Unknown shape, 0.1 m
Radar Cross Section
Medium (>0.1 m² and <1 m²)

Expand to show TLE details & history
Last TLE update: 6 hours ago

TLE from 6 hours ago
0 COSMOS 1275 DEB
1 19027U 81053ME  26221.86981067  .00002722  00000-0  12616-2 0  9995
2 19027  83.0010 185.3293 0062911 353.4133  36.1585 14.19434323 89453
Epoch: 2026-08-09T20:52Z
TLE epoch observation values (Epoch: 2026-08-09T20:52:31.641Z)
Latitude
29.80422°
Longitude
-82.1522°
Altitude
794.528 km
Speed
7.478 km/s
True Right ascension
12h 37m 21s
True Declination
29° 39' 25"
Sunlit
Object was in daylight at epoch
Visualization orbit readout
Latitude
Unknown
Longitude
Unknown
Altitude
Unknown
Speed
Unknown
Apparent Right ascension
Unknown
Apparent Declination
Unknown
Sunlit
N/A
Visualization observer readout
Local Sidereal Time
16:43:29
Azimuth
Unknown
Elevation
Unknown
Doppler factor
Unknown
Orbital elements
Apogee altitude
869.663 km
Perigee altitude
779.04 km
Semi-major axis
7,202.489 km
Eccentricity
0.00629
Inclination
83.001°
RAAN
185.3293°
Arg. of periapsis
353.4133°
True anomaly
36.58656°
Mean anomaly
36.1585°
Eccentric anomaly
36.37226°
Mean motion
3.55074 °/min
Orbital period
101.39 mins
BSTAR
0.0012616
Loading maneuver chart data...
Computing Atmospheric mass density...
Loading historical data...
Loading historical data...
Loading historical data...
Loading historical data...
Loading historical data...
Loading historical data...
Loading historical data...

Documentation

Showing up to 5 results
|